Theta_e
315 317 318 317 321 324 324 324 321 322 321 313 313 316 318 323 321 320 323 325 327 327 328 329 330 329 328 328 327 326 328 332 329 326 333 339 339 339 340 338 339 340 340 340 337 335 329 320 323 325 325 328 330 332 333 332 332 330 331 330 331 333 334 334 335 333 330 331 330 330 332 332 333 333 333 334 334 334 332 333 333 332 331 331 331 332 331 331 331 331 330 330 330 330 330 331 331
316 320 321 320 322 323 324 324 320 317 315 311 312 317 319 323 321 320 322 324 326 326 327 329 329 328 326 326 325 325 329 331 332 332 335 337 337 338 339 338 338 338 339 339 338 338 331 320 321 323 325 328 329 332 332 332 331 331 331 331 332 333 334 334 334 329 326 330 331 331 332 333 333 333 333 333 333 333 333 333 333 333 333 332 332 331 331 331 330 330 330 330 330 330 330 331 331
318 322 323 322 324 322 323 323 318 313 311 310 312 319 321 321 322 321 323 325 326 325 329 330 328 327 324 325 325 325 328 331 334 335 335 336 337 337 338 338 338 337 338 338 338 339 332 321 322 321 322 325 327 330 331 332 332 333 332 332 334 334 334 334 332 326 324 330 331 331 331 332 332 332 332 332 331 332 333 333 332 332 333 333 333 331 331 331 330 330 330 330 330 330 330 331 330
319 323 324 325 325 321 323 322 320 315 311 311 311 319 321 321 323 323 325 326 326 326 330 330 328 327 325 327 324 324 331 334 336 336 336 337 338 337 338 338 337 337 337 338 338 339 332 321 322 323 323 324 326 329 331 333 334 333 332 333 334 334 334 334 332 329 327 330 331 330 330 331 331 332 332 332 332 333 333 333 332 332 332 331 331 330 330 331 331 330 330 330 330 330 330 329 330
321 323 323 326 327 322 324 323 321 316 313 313 313 318 322 322 324 325 325 326 326 327 328 328 329 328 326 328 325 328 334 334 337 337 336 338 338 337 338 338 337 336 337 337 338 338 329 321 322 322 323 323 325 328 331 333 332 332 332 332 332 333 334 334 334 333 331 331 331 330 330 331 332 332 332 332 333 333 333 333 332 331 331 330 330 330 330 331 331 330 331 330 330 330 329 329 329
322 323 322 324 325 323 322 319 316 315 317 319 317 319 322 322 324 325 324 324 324 325 326 328 329 328 327 329 329 333 335 334 337 338 337 338 337 337 338 338 336 336 337 337 339 338 327 322 322 322 323 322 323 326 329 331 332 333 333 332 331 331 333 334 334 334 333 332 331 331 331 331 331 331 330 331 332 332 332 332 331 331 331 331 331 331 330 331 331 331 330 329 329 329 329 329 328
323 324 323 322 322 322 321 316 314 315 318 319 319 319 320 322 324 325 324 323 322 322 323 327 327 326 329 330 330 335 336 336 337 338 338 338 337 338 339 337 336 336 337 337 339 337 328 325 323 322 323 321 321 322 327 329 330 332 332 332 332 332 332 333 334 334 333 331 331 331 331 331 330 329 329 329 331 332 332 332 330 331 332 332 332 330 330 331 331 330 330 329 328 328 328 328 328
322 324 324 322 322 322 320 318 318 319 318 318 319 319 320 323 324 324 324 324 322 322 323 325 325 326 328 327 332 336 335 336 337 338 338 337 337 338 339 338 337 336 337 338 340 337 330 328 325 322 323 322 321 322 325 328 329 331 332 332 332 332 332 333 334 335 333 331 330 331 331 331 330 329 329 329 330 331 331 332 331 331 331 331 330 330 331 331 330 330 329 329 327 328 328 328 328
322 324 322 323 322 321 318 318 320 320 319 317 317 318 320 323 323 323 323 323 322 322 323 324 324 326 324 326 335 336 335 336 336 338 337 336 337 338 339 338 336 336 337 338 340 338 332 331 329 324 323 323 322 322 324 327 329 331 331 332 332 331 331 332 333 334 333 331 329 329 331 331 330 329 328 328 329 329 330 330 331 330 330 330 330 330 331 330 330 330 329 329 328 327 327 326 326
322 322 321 322 322 317 315 317 319 320 319 317 318 317 319 323 322 322 322 321 321 321 324 324 323 323 322 326 334 336 337 336 335 337 336 336 337 338 339 337 337 336 337 339 340 339 334 332 331 328 324 323 323 322 323 325 328 331 330 330 331 331 331 332 332 332 331 330 328 327 329 331 330 329 329 328 328 328 328 329 330 330 331 330 330 330 330 329 329 329 329 328 328 327 326 325 325
322 321 321 321 318 314 313 315 318 320 319 317 318 317 318 322 323 322 321 321 320 322 324 323 322 321 321 326 334 336 337 336 336 337 336 336 337 338 338 337 338 336 338 339 339 340 337 334 333 331 326 324 323 323 323 323 326 329 328 328 328 329 331 331 330 331 331 330 329 327 328 329 330 329 329 328 327 328 328 328 329 330 331 330 330 330 329 329 329 329 328 328 328 326 325 325 326
322 321 321 319 316 316 316 316 317 320 320 318 318 317 318 321 322 322 321 320 320 322 323 322 321 320 321 325 333 336 337 337 337 337 336 336 336 337 338 338 338 337 338 339 340 340 339 336 335 333 329 326 324 323 323 323 325 326 325 325 326 326 329 330 329 330 330 330 329 328 328 327 328 329 328 327 327 327 328 328 328 329 329 329 329 329 329 328 328 328 328 328 328 326 325 326 326
323 322 320 318 319 320 318 317 318 320 319 318 318 317 318 320 322 321 320 320 320 321 321 321 320 320 321 326 333 336 337 338 337 336 336 335 335 337 337 337 338 337 338 340 340 339 340 338 337 335 331 329 327 324 323 323 323 324 324 324 325 324 326 327 327 326 326 327 327 327 327 325 326 327 328 326 325 326 328 328 328 328 328 329 329 328 328 328 327 327 327 328 328 327 326 326 326
323 323 321 320 321 322 319 318 318 317 317 319 319 317 319 320 321 321 319 320 319 319 319 320 320 320 321 324 330 334 337 337 337 336 336 335 335 337 337 338 337 337 338 339 339 340 340 339 339 337 333 331 330 327 324 323 323 323 323 323 324 324 323 323 324 325 324 324 324 324 324 322 323 326 327 326 324 324 327 328 328 328 328 328 328 327 327 327 327 327 327 327 327 327 326 327 327
323 322 322 322 320 319 319 319 318 316 317 320 318 317 319 319 318 319 319 319 318 318 318 320 320 320 319 322 327 332 337 337 337 337 336 335 335 336 337 337 337 337 338 339 339 339 339 339 339 338 335 334 333 331 327 323 323 323 322 323 323 323 323 323 323 324 324 323 323 323 322 320 321 324 326 327 325 323 325 328 327 327 327 327 326 326 326 326 326 326 326 327 327 327 326 327 327
322 321 321 320 318 317 318 320 319 317 318 319 316 317 319 317 316 317 317 316 317 317 317 320 320 320 319 326 333 335 338 337 336 336 336 335 335 336 337 337 337 337 337 338 339 339 339 339 339 339 338 337 336 335 333 327 323 323 322 322 323 323 323 323 323 323 323 322 322 320 319 319 319 322 326 327 326 324 324 326 326 325 326 326 325 326 325 325 326 325 326 326 326 326 326 326 327
320 321 321 318 318 318 319 320 318 316 318 318 316 318 319 317 316 315 314 315 318 317 317 320 320 321 322 327 336 339 338 336 337 336 336 336 335 335 336 336 336 336 337 338 338 338 339 339 339 339 338 338 337 337 336 332 326 323 322 322 323 324 324 324 323 323 323 322 321 319 321 323 323 323 325 326 326 325 323 323 324 324 324 325 324 324 324 324 324 325 326 326 325 326 326 327 326
320 321 319 316 319 320 319 320 317 317 319 318 317 318 318 317 316 315 315 315 317 317 317 319 318 322 324 326 333 338 337 336 337 336 336 336 336 335 335 335 336 336 336 337 337 337 338 339 339 339 339 338 338 337 337 335 330 326 327 325 324 324 323 324 325 324 324 323 322 323 327 327 327 326 325 325 326 325 323 321 322 323 323 324 323 323 324 324 323 324 325 325 325 326 326 326 326
320 321 319 318 321 320 319 320 317 317 318 318 317 318 318 318 316 315 316 317 317 316 317 318 318 321 323 326 333 337 336 336 337 336 336 336 336 335 335 335 335 335 336 336 336 337 337 338 339 338 339 338 338 338 337 337 333 331 332 330 328 327 324 325 328 328 327 326 325 328 329 327 327 327 325 324 324 323 323 321 320 321 322 322 321 321 322 322 322 322 323 324 325 326 326 326 326
319 321 320 320 322 319 317 318 316 315 317 318 317 317 318 318 317 315 316 318 317 316 316 317 318 320 322 327 334 336 335 337 337 337 337 337 337 336 336 336 335 335 335 335 336 336 336 337 338 338 339 338 338 338 337 337 335 333 334 333 331 330 328 328 330 330 330 330 328 329 329 327 327 325 320 320 321 322 323 321 319 320 321 321 321 321 321 321 321 321 322 324 325 325 326 326 326
319 319 319 320 320 318 316 316 315 314 315 318 317 317 317 317 316 316 316 317 316 316 316 317 316 318 323 327 333 334 335 337 336 337 338 337 338 336 337 336 336 336 335 335 335 335 336 336 338 338 338 338 338 338 338 337 336 335 334 333 332 331 330 330 330 330 331 331 330 330 329 327 327 323 317 319 323 324 323 322 321 321 322 322 322 322 321 321 321 322 322 323 324 324 325 325 325
318 317 317 318 318 318 315 314 313 313 315 317 317 317 317 316 315 316 316 315 316 315 315 317 316 317 322 327 333 335 336 337 336 337 338 338 338 337 337 337 337 337 336 335 335 335 335 336 337 338 338 338 338 338 337 337 336 336 335 334 333 331 331 330 330 330 330 330 329 330 328 327 327 325 323 323 326 325 324 324 324 323 323 322 322 322 322 321 322 322 322 323 323 324 324 324 325
317 317 316 315 316 316 314 313 311 312 315 316 316 316 315 315 315 316 315 315 315 314 315 315 317 321 324 328 333 335 336 337 337 337 338 338 338 338 337 337 337 337 337 336 335 336 335 336 336 337 338 338 338 337 337 337 336 336 335 335 333 332 331 330 330 330 330 330 330 329 328 328 328 327 326 326 326 325 325 324 324 324 323 322 322 323 322 321 322 322 323 323 323 323 324 324 324
316 318 316 314 313 314 312 311 310 311 314 315 315 315 314 315 315 315 315 315 314 313 315 314 318 325 327 329 332 334 336 337 337 337 338 338 338 338 338 338 337 337 337 337 336 336 336 336 336 337 337 337 338 338 337 337 336 336 336 335 334 332 331 330 330 330 330 329 329 329 328 328 328 328 327 326 325 325 325 324 324 323 323 323 321 322 321 320 322 323 323 323 322 323 323 324 324
316 317 316 314 313 312 311 310 311 311 313 313 314 314 315 314 313 313 314 315 315 315 317 317 320 324 325 327 330 332 335 336 337 337 338 338 338 338 338 338 337 338 337 337 337 336 336 336 336 336 337 337 337 337 337 337 336 336 336 335 334 333 331 330 330 330 329 329 329 329 328 328 328 328 328 327 326 325 324 322 322 322 322 322 319 320 320 320 322 322 322 322 322 323 323 323 323
316 317 315 314 313 312 311 311 311 311 312 312 314 315 314 312 312 314 315 315 314 314 317 318 320 321 323 325 327 330 334 335 336 337 338 338 338 338 338 338 337 337 337 337 337 336 336 336 337 336 336 337 337 337 337 337 336 336 336 335 334 333 332 331 330 329 329 329 329 329 328 328 328 328 328 328 326 325 324 320 319 320 320 318 315 317 320 320 322 321 322 322 321 322 322 323 322
315 315 314 313 312 312 312 312 311 312 312 312 314 315 313 312 312 315 315 313 312 313 315 318 318 319 322 324 326 329 331 334 336 336 338 337 338 338 337 337 337 337 337 337 337 336 336 336 337 336 336 337 337 337 337 337 336 336 336 336 335 333 332 331 330 329 329 329 329 328 328 328 328 328 328 328 327 325 324 321 320 319 318 316 312 314 317 318 321 321 321 321 321 321 322 322 321
315 314 314 313 312 312 312 313 312 313 313 312 314 315 313 312 313 315 314 311 312 313 315 318 318 318 321 323 326 329 331 332 335 336 337 337 337 337 337 337 336 336 336 337 337 336 336 336 336 337 336 337 337 337 337 337 337 336 336 336 335 334 333 332 331 330 329 329 329 328 328 328 328 328 328 328 327 326 325 323 322 320 319 317 312 312 312 312 318 320 319 319 320 320 321 321 320
314 314 315 313 314 314 312 313 312 313 313 312 314 314 313 314 314 314 312 311 312 313 314 317 317 317 319 322 325 328 330 332 335 336 337 336 336 336 335 335 336 336 337 337 337 336 336 336 335 336 336 336 336 336 336 336 336 336 336 336 336 335 334 333 332 331 330 329 329 328 328 328 327 327 328 328 327 326 325 324 323 322 321 320 317 314 310 308 312 314 313 314 317 319 320 320 320
314 315 315 314 314 314 313 313 312 313 312 311 313 312 313 316 315 313 311 311 313 313 314 316 317 317 319 323 325 327 329 332 334 334 335 335 335 335 334 335 335 336 336 337 337 336 336 336 335 335 335 336 336 335 335 335 335 335 336 335 335 335 334 333 332 331 331 330 329 329 328 328 327 326 326 326 326 325 325 325 325 324 321 321 321 319 314 309 308 310 310 310 314 316 318 320 319
314 314 315 315 313 312 314 313 313 314 311 311 312 310 313 317 315 313 311 311 312 314 314 315 316 317 319 322 324 325 327 330 332 332 333 334 334 334 334 334 335 335 336 336 336 336 335 336 335 334 335 335 335 335 335 334 334 335 335 335 335 335 334 334 333 332 331 330 330 329 329 328 328 326 325 325 324 324 324 324 325 325 323 323 323 321 317 312 310 312 312 312 314 315 317 319 319
314 312 312 314 312 312 315 313 313 314 312 311 312 311 313 316 314 311 311 311 312 313 314 315 315 317 319 320 321 322 324 328 330 330 332 333 333 334 334 334 334 335 336 336 335 335 335 335 335 335 334 334 335 335 335 334 334 334 335 335 335 335 335 334 334 333 332 331 330 330 330 329 329 328 328 327 326 325 324 324 324 325 326 326 324 322 320 315 314 314 314 315 317 317 317 319 319
314 312 310 312 313 313 314 312 312 314 313 312 312 312 314 315 313 311 311 311 312 313 314 314 315 315 316 317 318 319 320 324 328 329 330 332 333 334 335 334 334 335 334 335 335 335 335 335 335 335 334 334 334 334 334 334 334 333 334 335 335 335 334 334 333 333 333 332 331 330 330 329 329 328 329 329 329 327 326 325 324 325 326 327 325 324 322 318 315 316 316 315 317 318 317 318 318
312 312 311 313 313 312 312 313 313 313 314 314 312 312 314 315 314 311 311 312 312 313 313 314 314 314 315 315 315 316 317 319 323 326 328 330 333 333 334 334 334 335 334 334 334 334 335 335 335 335 334 334 333 334 334 333 332 332 332 333 334 334 334 334 333 333 332 332 331 330 330 329 328 328 328 328 329 328 328 326 324 324 325 326 326 326 325 321 317 316 317 316 316 317 317 317 317
311 311 311 313 313 312 312 313 313 313 313 314 314 313 314 315 315 313 312 312 313 313 313 314 314 314 314 315 314 314 315 316 318 321 324 327 330 332 333 333 333 334 334 334 334 335 335 334 335 335 334 334 333 333 334 333 332 331 332 332 333 334 334 334 333 332 332 331 331 329 329 329 328 328 329 328 328 329 328 326 324 324 325 326 326 325 325 324 319 316 316 316 315 315 316 316 316
313 312 311 311 311 311 313 313 311 312 313 314 314 314 314 315 315 315 313 312 312 313 313 313 314 313 314 314 315 315 315 315 316 316 319 322 326 329 330 331 331 332 333 333 334 334 335 334 335 335 334 334 333 333 333 333 333 332 332 331 331 332 333 333 333 333 332 331 331 330 330 330 329 329 330 329 328 328 328 327 325 325 326 326 326 325 325 324 320 317 316 316 316 315 315 315 315
314 314 312 311 311 310 312 313 311 312 313 314 314 314 315 315 315 315 314 314 313 313 313 313 314 314 314 314 314 316 315 316 319 318 318 320 322 325 327 328 329 330 330 331 332 333 334 334 334 334 334 333 332 332 332 333 332 332 332 332 332 331 332 332 333 333 333 333 332 332 331 330 330 330 329 328 327 327 328 328 327 327 327 327 327 326 325 323 320 318 316 315 315 314 314 314 313
314 313 312 312 312 312 312 313 311 311 312 313 314 314 314 315 315 315 315 314 314 314 314 314 314 314 315 315 315 316 316 320 322 319 317 317 318 319 321 324 326 328 329 329 330 331 332 333 334 334 333 333 332 331 332 332 332 332 332 332 332 331 331 331 332 333 333 333 332 331 330 330 330 329 327 327 328 329 329 328 328 328 328 327 326 324 322 321 320 319 318 316 315 314 313 313 313
312 313 312 311 312 312 312 313 312 311 311 313 315 314 314 315 314 314 314 315 315 315 315 314 314 314 315 315 316 317 317 321 322 319 317 316 316 316 316 317 320 323 325 327 328 329 330 331 332 333 333 332 332 331 331 332 332 332 331 331 331 331 331 331 332 331 331 331 331 330 329 329 328 328 328 328 329 330 329 328 328 328 328 327 326 323 321 321 320 320 319 317 315 314 313 312 312
313 313 310 311 314 311 310 312 312 311 311 312 314 314 314 314 314 315 315 315 316 316 316 316 316 316 316 318 319 319 319 321 321 319 317 317 316 316 315 313 314 316 320 323 326 327 328 329 330 331 332 332 332 331 330 331 332 332 331 331 331 331 330 331 332 331 330 330 331 330 330 331 330 330 331 330 329 329 328 328 328 328 327 327 325 322 321 322 321 321 320 318 315 313 312 312 312
314 316 312 313 315 312 312 313 312 311 311 311 313 311 311 313 313 314 315 316 316 316 315 315 316 317 317 319 321 320 319 320 320 319 318 317 316 316 315 313 312 312 314 317 320 324 326 327 329 330 331 332 332 331 329 330 331 331 331 330 330 331 330 330 331 331 332 331 332 332 332 332 332 332 331 330 329 327 326 327 329 328 326 326 324 322 323 323 322 322 321 319 317 315 313 312 312
312 317 316 313 313 313 314 314 312 311 311 313 313 309 308 312 314 314 315 315 314 315 314 314 315 316 316 316 317 317 318 318 317 317 317 317 317 315 315 313 313 312 312 312 315 320 323 325 327 328 330 331 331 331 330 329 330 330 330 329 329 330 330 330 330 330 330 330 331 331 331 332 331 331 331 330 329 327 327 328 329 328 326 325 324 323 324 323 322 323 322 321 319 317 315 312 311
310 315 316 313 313 315 314 315 313 311 311 311 312 310 309 311 313 315 316 314 314 314 314 314 314 315 316 316 315 316 317 317 316 316 315 315 316 315 315 314 313 313 312 310 311 315 320 323 325 327 328 329 329 330 330 328 328 328 329 329 329 328 328 328 328 328 328 328 328 328 329 329 329 328 329 328 327 327 329 329 329 329 327 326 325 324 325 324 323 323 323 322 321 318 314 312 312
312 317 316 312 314 316 316 316 314 312 313 311 312 313 311 309 312 315 315 313 314 314 314 315 314 314 315 315 314 315 315 315 316 316 315 315 314 314 314 314 313 312 311 311 310 312 315 319 322 324 326 327 328 329 329 328 327 327 328 328 328 327 327 328 327 327 327 327 327 327 327 326 326 327 327 328 327 327 329 329 330 330 328 326 325 325 326 324 322 321 321 321 320 317 314 312 312
315 316 316 314 316 317 316 316 314 314 313 311 313 314 310 308 311 314 314 312 313 314 314 315 315 315 315 314 314 315 315 314 314 315 315 316 315 313 312 312 312 311 310 310 310 310 311 314 316 320 323 325 326 327 327 327 326 326 327 327 326 326 326 326 327 327 327 326 326 326 327 327 327 328 328 329 329 328 328 329 329 328 327 326 326 325 325 324 322 321 322 322 320 318 317 315 313
314 313 315 316 317 317 317 315 313 313 312 310 314 314 310 308 310 312 313 312 313 314 314 315 315 315 315 315 315 315 314 314 314 314 315 316 315 313 312 311 310 310 308 307 309 310 310 311 314 318 321 323 324 325 325 325 324 323 325 326 326 325 325 325 326 327 326 325 325 325 325 326 326 327 327 327 327 327 327 327 327 326 325 326 326 325 325 324 323 322 322 321 320 319 318 316 314
313 315 315 315 315 315 315 314 313 312 312 312 314 314 312 309 309 312 314 312 313 314 314 314 315 315 315 315 315 314 313 313 314 314 315 315 314 313 312 312 312 312 309 307 310 312 312 313 316 318 320 321 323 323 323 323 323 322 324 325 325 325 325 325 325 326 325 324 324 324 324 324 324 325 325 325 324 325 325 325 324 325 325 327 327 325 324 323 323 322 321 319 318 318 317 315 313
315 317 315 314 314 313 312 312 312 312 312 311 311 313 313 310 309 313 314 312 311 313 313 313 314 314 315 315 314 313 312 312 313 315 316 317 315 315 315 315 316 314 311 310 312 313 313 314 316 318 319 321 322 322 321 322 323 322 323 324 324 324 325 325 324 324 324 323 323 323 323 324 324 323 323 323 323 323 324 324 323 324 325 326 325 325 325 324 323 322 321 320 318 317 316 314 313
315 315 313 313 313 313 313 312 312 312 311 309 308 312 313 311 310 312 314 313 311 311 312 313 314 314 314 315 315 314 314 313 314 315 317 318 318 318 318 317 317 316 315 315 315 315 315 316 317 318 320 321 321 321 321 321 322 322 323 323 324 324 324 324 324 323 323 322 322 323 323 324 324 323 322 322 322 323 324 325 324 324 324 324 325 325 325 324 323 322 321 321 319 317 316 315 314
314 313 312 312 312 315 315 314 313 312 311 309 309 311 312 310 311 313 314 313 312 311 312 313 314 313 313 314 314 314 314 314 314 315 317 318 319 319 319 319 318 318 318 317 316 317 317 318 319 319 321 320 319 319 320 321 322 322 322 322 323 323 323 323 323 323 323 323 323 323 323 324 324 323 322 321 322 323 324 324 324 324 323 323 323 323 323 323 323 322 322 321 320 319 317 316 315
314 316 314 312 312 314 314 313 313 313 312 309 309 310 310 309 310 313 313 312 311 310 310 312 312 312 312 312 313 314 314 314 313 314 315 316 317 317 317 318 318 318 317 317 316 317 317 319 320 321 320 318 316 316 318 320 321 321 321 321 322 322 323 323 323 323 323 323 324 324 324 324 324 323 322 322 322 322 322 322 322 321 321 321 320 320 320 320 321 321 321 320 319 318 316 315 315
314 316 316 314 313 312 312 312 311 312 312 310 310 310 311 312 312 313 313 311 310 309 309 310 311 312 312 313 314 315 314 313 313 314 314 314 315 316 317 317 317 317 317 316 316 316 317 318 319 321 319 316 315 316 317 319 319 320 320 320 321 321 322 322 322 322 322 323 323 323 323 322 322 322 322 322 321 321 321 321 320 319 319 318 318 318 318 318 318 318 318 317 317 316 314 314 314
314 314 314 313 314 313 311 310 309 309 310 311 311 311 311 311 312 313 313 310 310 309 309 310 311 313 313 314 317 317 315 314 314 314 314 314 314 315 316 317 317 316 315 316 316 315 316 317 317 319 318 316 316 317 317 318 319 319 319 319 319 320 320 320 321 321 321 321 321 321 320 320 321 320 319 319 319 319 319 319 319 318 317 317 316 316 316 316 315 315 314 314 314 313 312 312 312
313 313 314 312 312 313 310 310 310 309 310 310 310 310 309 308 310 312 313 311 311 310 310 310 312 313 313 316 318 316 314 314 313 312 312 314 315 315 316 316 315 316 316 315 315 315 316 316 316 318 318 317 317 318 318 319 319 319 319 319 319 319 319 319 319 320 320 320 319 318 318 318 318 317 316 316 316 316 317 317 317 317 317 316 315 315 315 314 314 313 313 312 312 312 311 311 311
312 312 314 313 312 312 310 311 312 311 311 310 309 309 308 309 309 310 311 312 311 311 311 311 311 312 313 316 317 314 314 314 314 314 314 314 315 315 315 315 313 313 314 315 314 315 315 316 316 317 317 317 317 318 318 318 318 319 318 318 318 318 318 318 318 318 318 318 318 317 316 316 316 315 315 314 314 314 315 315 315 315 315 315 315 314 314 313 312 312 312 311 311 311 310 310 310
310 310 312 313 314 312 311 311 311 311 311 310 310 309 309 311 311 310 312 312 311 311 312 312 311 312 314 315 316 316 317 317 316 315 315 315 315 315 314 314 313 312 312 313 313 314 314 315 316 316 317 317 317 317 317 317 317 317 317 316 317 316 317 317 316 316 316 315 315 315 314 314 313 314 313 313 313 313 313 313 313 313 313 313 313 313 313 313 311 311 310 310 310 310 310 309 309
310 310 311 312 312 311 311 311 310 310 310 310 311 310 308 311 312 311 312 311 311 311 312 313 313 313 314 314 316 318 318 318 317 316 316 316 316 315 313 312 311 311 311 311 312 313 313 314 314 315 315 315 315 315 315 315 315 314 314 314 314 314 314 314 314 314 313 313 313 313 313 312 312 312 312 312 312 312 312 312 312 312 312 311 312 312 312 312 311 310 310 310 310 309 309 309 308
313 311 311 312 312 311 312 313 311 310 309 309 310 310 309 311 312 311 312 310 310 310 310 313 314 313 313 314 315 318 318 317 317 316 316 316 316 315 313 311 311 311 311 311 311 312 312 313 313 314 314 314 314 314 314 313 313 313 313 312 312 312 312 312 312 312 312 312 312 312 311 311 311 311 311 311 311 311 311 310 310 310 310 310 310 310 310 310 310 310 310 309 309 309 309 308 308
Wind_Speed
6 6 4 3 3 5 6 4 3 3 4 2 3 2 5 5 5 7 8 6 6 6 3 4 7 4 1 4 4 6 9 7 6 3 2 5 13 14 12 15 16 16 16 15 14 11 9 9 9 9 11 13 13 12 11 12 12 13 13 12 12 10 10 13 16 15 16 17 16 16 16 16 16 16 15 16 17 17 17 17 17 17 17 16 16 18 17 18 19 19 19 19 19 19 18 17 17
6 6 4 3 4 5 2 1 4 3 3 2 3 1 7 7 5 8 8 6 6 7 4 6 6 3 3 3 1 2 8 10 9 7 6 11 16 13 13 16 16 15 14 15 14 13 11 9 10 10 11 12 13 13 13 15 15 14 13 12 12 10 9 13 16 15 16 17 16 16 15 16 15 15 15 15 16 16 16 16 16 16 16 16 16 17 17 18 18 19 19 19 19 18 17 17 16
4 4 3 4 4 5 2 2 5 2 3 2 5 4 7 7 6 8 8 7 10 9 6 6 6 3 1 2 1 2 4 7 9 10 9 14 13 12 15 16 16 15 14 14 14 14 12 10 10 10 12 12 14 14 15 16 14 13 13 12 11 9 8 12 15 16 17 17 15 15 14 15 15 14 15 15 15 14 14 15 16 16 15 16 16 17 17 18 18 18 18 18 19 18 17 17 16
3 3 3 4 4 4 4 4 4 4 3 1 4 6 7 7 7 10 10 9 10 8 7 7 5 1 3 1 3 2 6 6 8 9 9 11 11 16 18 17 16 14 14 13 13 14 12 11 10 10 11 12 13 15 15 14 13 13 13 12 11 11 10 13 16 16 17 16 15 14 14 14 13 14 14 14 13 13 14 15 16 16 15 16 16 17 17 17 17 18 18 18 17 17 17 17 16
3 3 4 5 4 2 3 3 3 4 1 1 3 8 8 7 9 11 9 8 7 6 6 7 3 3 1 3 4 2 6 6 7 9 10 11 14 19 18 17 16 14 14 12 12 13 13 11 11 11 11 12 13 14 14 14 14 15 13 10 10 11 11 13 15 15 15 15 14 14 13 13 13 13 13 13 13 12 14 15 15 16 16 16 16 16 16 16 16 16 16 16 16 16 16 16 16
2 3 4 5 2 1 3 3 3 4 2 4 3 8 8 6 10 11 10 8 5 3 3 5 2 3 3 2 3 5 4 5 8 9 11 13 16 19 18 17 15 14 14 13 12 13 14 12 11 11 11 11 12 14 14 15 16 15 13 11 10 10 10 11 14 15 14 14 13 13 13 13 13 13 13 13 13 12 13 15 15 15 15 16 15 15 15 15 15 15 15 14 15 15 15 15 15
2 2 3 4 2 1 5 4 4 4 3 5 3 6 9 8 10 12 11 8 4 2 3 3 2 2 3 4 3 6 6 5 7 9 12 15 18 19 18 16 15 14 13 12 12 13 13 12 11 11 11 12 12 13 14 15 16 14 13 13 10 9 9 9 13 16 14 14 13 13 13 12 13 13 13 13 12 13 14 15 15 14 14 15 15 14 14 14 14 14 14 14 14 15 15 15 15
3 2 1 3 4 3 5 5 3 1 3 3 3 3 6 10 10 11 11 7 6 6 6 4 3 4 3 3 1 6 6 6 8 11 15 17 18 18 17 15 15 15 13 12 12 13 13 12 11 11 11 11 12 13 15 15 14 14 13 12 10 8 9 9 12 15 14 13 13 12 12 12 12 13 12 12 11 12 13 14 14 13 13 13 13 14 14 14 14 14 14 13 13 14 14 15 15
3 3 1 3 4 3 5 5 2 2 3 4 4 3 3 8 9 10 10 7 6 7 8 7 5 3 4 4 3 7 6 7 10 13 16 18 19 18 16 14 15 15 13 12 12 12 12 11 11 10 10 10 12 12 13 14 13 12 12 13 11 8 9 10 12 13 13 11 11 11 12 12 11 12 12 12 11 12 12 12 13 13 12 12 12 13 13 13 13 13 12 12 13 14 14 15 15
4 3 1 4 4 4 5 5 3 3 5 4 4 4 4 7 8 9 9 7 8 7 7 6 4 2 2 5 5 5 8 9 12 14 15 18 19 17 15 14 14 15 14 12 12 12 11 11 10 10 9 9 11 11 12 11 12 11 11 12 11 9 9 10 10 11 10 10 10 11 11 11 10 11 11 11 11 11 11 11 12 12 11 11 11 12 11 11 11 12 12 12 12 13 14 15 14
4 2 1 3 5 5 6 5 4 3 5 4 4 5 5 7 7 8 9 6 8 7 7 5 4 4 2 4 5 6 10 11 13 15 17 18 19 17 15 14 13 14 13 13 13 12 11 11 10 10 9 9 9 10 10 10 10 10 10 11 10 11 11 9 8 8 8 8 9 10 10 10 10 10 10 11 11 11 11 11 11 11 10 10 11 11 10 11 11 11 11 11 11 12 13 14 13
4 4 2 4 6 5 4 3 4 4 5 5 5 6 5 7 7 8 9 7 8 7 9 7 2 4 5 3 4 8 11 11 14 17 18 18 18 16 15 14 13 14 12 12 13 12 11 11 10 9 9 8 8 9 9 9 9 9 10 10 9 10 12 10 8 8 8 7 7 8 9 9 10 9 9 10 10 11 11 10 8 8 8 9 9 9 9 10 10 10 10 10 10 11 13 13 12
4 4 5 4 3 3 1 1 3 4 4 5 6 7 7 9 9 8 8 7 9 7 9 8 1 2 4 4 6 9 11 12 15 17 18 18 17 16 15 14 14 14 12 12 12 13 12 11 10 9 9 8 7 7 8 8 8 8 9 9 8 9 10 10 8 8 7 6 6 7 7 7 8 9 9 8 8 10 11 10 7 6 7 8 8 8 8 9 9 9 9 9 9 11 12 12 11
3 2 4 3 1 2 2 1 3 4 4 6 7 8 9 8 6 6 6 8 8 4 4 5 2 3 3 5 6 7 10 15 17 18 18 17 17 17 14 14 14 14 13 11 12 12 13 12 11 10 10 9 8 8 7 8 7 7 7 8 7 8 9 8 7 7 6 6 5 5 5 5 7 9 8 6 7 10 12 10 7 6 7 7 7 7 8 8 8 8 8 8 8 9 11 11 10
2 1 3 3 2 3 3 1 3 5 4 9 8 10 10 5 2 4 5 5 5 5 5 3 1 1 1 2 3 7 15 18 19 18 18 16 17 16 14 14 14 14 13 12 12 12 12 13 12 11 11 10 9 9 8 8 8 7 7 7 6 7 7 7 7 6 6 5 5 4 4 5 6 8 8 6 6 8 10 9 7 6 6 6 7 7 7 7 7 7 7 7 7 8 10 11 10
3 2 2 3 4 4 4 2 2 5 4 9 8 11 10 5 3 4 1 2 4 6 4 3 2 1 4 4 6 12 21 20 19 19 17 17 16 15 15 14 14 14 13 13 13 12 12 12 12 11 12 12 11 10 9 9 9 8 7 7 6 6 6 6 6 6 5 5 4 4 4 5 6 7 6 6 6 6 8 8 7 6 6 6 7 7 7 7 7 7 7 6 6 7 9 10 9
2 2 4 4 4 4 5 6 3 2 6 9 9 11 11 8 5 3 2 2 2 6 4 3 4 1 5 6 7 15 22 20 20 20 18 17 16 16 15 15 15 14 14 14 14 13 12 12 12 11 12 12 11 11 9 8 10 9 8 8 7 6 5 6 6 5 5 4 4 4 5 6 6 6 6 6 6 5 6 7 7 6 6 6 7 7 7 7 7 7 6 6 6 7 8 8 7
3 4 5 5 5 4 4 6 3 2 6 9 10 13 11 9 8 4 3 5 3 5 6 4 4 4 7 7 6 13 19 19 20 21 20 18 16 17 16 16 16 15 15 15 15 14 13 13 13 12 12 12 12 11 10 8 10 9 8 8 7 7 6 5 4 4 4 4 4 5 6 6 6 6 6 6 6 5 5 6 7 7 6 6 6 7 8 7 7 6 6 6 8 8 8 6 6
4 4 5 6 4 3 2 2 3 3 4 10 10 12 9 9 11 7 6 9 7 6 7 6 6 7 9 9 9 13 18 19 20 21 20 19 17 17 17 16 17 16 16 16 16 16 15 14 13 13 12 13 12 10 10 8 9 10 8 8 7 7 7 6 4 4 4 3 4 5 5 6 6 7 7 8 7 5 6 6 6 6 6 5 5 5 6 6 6 7 7 8 9 9 7 4 4
3 3 5 4 3 5 4 2 4 4 2 10 11 9 7 7 10 8 7 8 9 9 7 8 9 10 10 12 14 15 17 19 19 19 19 19 18 17 16 16 17 17 17 17 16 17 16 15 14 14 13 13 12 11 10 9 10 11 10 9 7 7 7 6 6 5 5 5 5 5 4 6 7 6 7 8 7 5 5 6 5 4 4 4 3 2 4 6 6 7 8 9 8 6 4 3 3
2 3 3 1 2 3 4 3 5 4 1 7 10 9 7 6 7 7 8 7 8 10 9 10 10 12 13 13 16 16 17 19 19 19 18 18 17 16 15 15 16 15 16 16 16 17 17 16 15 15 14 13 13 12 10 10 10 11 11 10 9 9 8 8 7 6 6 6 6 5 5 6 6 6 7 7 6 6 6 6 5 4 3 4 3 2 3 5 5 6 7 7 5 3 3 4 3
3 4 2 4 2 2 5 3 4 3 1 6 10 9 8 6 5 8 10 8 3 2 3 5 5 9 14 15 16 17 17 19 19 20 19 18 18 16 15 14 14 14 15 15 16 16 17 17 16 16 16 14 14 13 11 11 11 11 12 11 10 10 10 10 9 8 8 7 7 6 6 6 6 6 7 7 7 7 7 7 6 6 5 5 5 3 3 5 4 4 4 3 2 3 4 4 4
4 4 2 4 3 3 4 2 2 1 2 8 9 7 7 7 7 8 11 8 3 7 5 6 4 3 14 17 16 16 16 18 20 21 20 20 19 18 16 15 14 14 14 15 15 15 17 18 17 16 16 16 15 14 12 11 11 12 12 12 12 11 11 11 10 9 9 8 8 8 7 6 6 7 7 8 8 7 7 7 7 7 7 6 6 5 5 6 5 5 5 4 5 5 5 5 5
6 3 5 4 4 3 3 2 1 2 2 5 5 6 7 10 7 5 10 8 6 8 6 6 5 5 13 15 15 15 16 18 20 21 20 19 19 18 16 15 14 14 14 15 15 15 16 17 18 18 17 17 16 15 13 12 12 12 12 12 12 11 12 11 11 10 9 10 9 9 8 7 6 6 7 8 8 7 7 7 7 7 7 6 6 6 7 7 6 6 6 6 6 5 5 5 5
8 3 6 4 4 4 3 2 2 2 1 2 4 6 5 4 1 2 9 9 6 8 6 6 4 6 10 12 14 14 15 17 18 18 18 17 17 17 16 15 13 14 15 15 16 16 16 17 18 18 18 17 17 16 15 14 13 13 13 12 11 13 13 11 11 12 10 10 10 10 9 8 8 7 7 7 8 8 8 8 7 7 7 7 7 7 7 7 7 6 6 6 5 5 5 6 5
7 4 6 6 5 5 3 2 3 3 1 2 6 7 2 3 2 5 9 6 6 7 5 5 5 6 8 10 12 13 13 16 17 18 18 16 16 17 18 16 15 16 16 16 16 17 17 18 18 19 18 18 18 17 17 16 14 14 14 12 13 16 15 11 12 12 11 11 11 11 11 10 9 8 8 7 8 8 9 8 8 7 8 8 7 7 8 8 7 7 7 6 6 6 6 6 7
4 7 7 7 6 4 2 3 4 3 3 4 6 6 2 3 2 6 5 4 5 5 6 6 5 6 7 8 10 12 13 15 17 17 17 17 16 17 19 18 18 17 16 17 17 17 17 18 19 19 19 18 18 18 17 17 15 15 14 12 14 17 15 13 12 11 11 12 12 12 11 11 11 10 9 8 8 9 9 9 8 9 8 8 8 8 9 9 8 7 8 7 6 6 6 7 8
7 10 8 6 5 5 3 4 5 3 3 3 4 4 3 3 4 4 5 5 3 6 7 8 7 7 7 8 8 9 11 13 15 16 17 18 17 17 19 19 19 17 17 17 17 17 17 18 19 19 19 20 19 19 18 17 16 16 15 14 14 14 15 15 13 11 11 12 13 13 12 12 12 11 11 10 10 9 10 10 9 10 9 9 9 9 10 10 10 9 10 10 9 8 7 8 9
8 9 7 7 5 5 4 4 4 3 3 3 2 3 4 7 9 5 7 4 4 6 7 8 8 7 7 8 8 8 9 11 13 15 17 18 17 17 19 19 19 18 17 17 16 17 17 18 19 19 20 20 20 20 19 17 17 17 16 15 14 14 14 15 16 13 11 12 12 13 12 12 13 12 12 13 12 10 10 11 11 11 10 10 10 10 10 11 12 12 13 12 12 11 9 10 11
7 8 5 6 5 6 6 4 4 3 2 3 3 4 6 12 13 6 8 4 5 6 7 7 7 7 7 7 7 8 9 11 13 15 16 16 17 17 18 18 18 18 16 16 17 18 17 16 17 19 20 22 21 21 19 18 18 18 17 16 15 16 16 16 17 15 12 12 12 14 13 12 13 15 14 14 15 13 12 14 14 13 13 12 12 11 10 11 13 14 14 13 14 14 12 11 12
6 6 5 6 6 6 8 5 7 5 2 3 4 4 5 8 11 7 6 4 4 6 7 7 7 7 7 7 7 8 9 12 14 15 15 16 16 15 16 17 18 18 16 16 18 19 18 17 17 18 20 23 22 21 20 19 17 17 18 17 17 18 19 19 17 15 14 13 13 14 14 13 14 17 18 18 18 15 14 16 17 16 15 15 14 13 12 12 13 14 15 14 14 15 14 12 12
6 6 6 7 6 5 7 5 6 3 3 6 5 5 5 5 9 7 4 5 5 7 7 7 7 7 8 7 8 8 8 11 13 14 15 16 16 15 16 17 18 19 18 17 17 18 18 18 18 18 19 21 22 21 21 20 18 17 17 18 18 17 18 21 20 16 13 14 14 14 16 17 17 17 19 20 20 19 17 18 19 19 18 18 17 16 15 14 14 15 16 15 13 13 14 12 12
6 7 7 8 8 6 6 5 4 2 4 9 8 5 4 4 7 5 4 5 6 7 8 8 8 7 8 7 7 7 8 10 11 14 15 16 16 16 16 17 19 20 19 18 17 18 19 19 19 18 18 19 20 21 20 19 19 18 18 18 19 17 16 20 23 21 18 17 16 16 16 17 19 19 19 20 21 22 21 21 21 22 22 20 20 19 18 16 16 15 16 16 14 12 12 12 12
7 7 6 6 9 7 5 5 4 5 5 8 9 7 7 3 7 6 6 6 7 7 8 8 8 7 7 6 7 8 8 9 10 14 17 17 17 17 16 16 18 18 19 19 18 18 18 19 20 19 19 18 19 20 20 19 19 18 18 18 18 18 18 17 19 21 22 20 17 18 18 17 19 20 21 21 22 22 22 21 19 22 24 23 22 22 21 20 18 17 16 16 16 13 11 12 12
9 8 6 4 6 7 5 4 5 8 7 8 10 10 13 8 6 8 9 8 7 7 7 6 7 8 7 7 7 8 9 9 10 13 17 19 18 17 17 16 17 18 18 19 19 18 18 18 19 19 20 19 18 19 19 18 18 18 18 18 18 19 19 18 18 19 21 20 19 21 21 20 21 22 22 23 24 24 24 22 21 23 26 24 24 24 24 23 21 20 17 15 17 16 12 10 11
11 11 9 7 7 7 4 3 3 5 7 9 11 10 12 13 10 8 10 10 8 7 6 5 6 7 7 8 8 8 9 9 11 13 14 16 17 18 18 17 18 19 18 18 19 19 18 18 18 19 20 20 18 18 19 19 18 18 18 18 19 19 18 19 20 21 22 24 25 26 26 27 27 25 25 25 26 26 25 25 25 27 27 24 25 25 26 26 24 23 22 18 18 19 18 15 14
9 11 10 9 8 6 4 5 2 1 4 9 12 12 12 13 12 10 8 9 8 9 9 8 8 8 8 9 9 10 10 9 8 10 10 12 15 16 17 17 18 19 19 19 20 21 21 20 19 20 20 20 20 19 19 20 20 19 19 19 19 19 19 19 20 19 20 23 25 26 27 27 27 25 24 26 26 27 27 28 29 30 29 26 27 28 27 26 25 25 24 22 21 21 21 22 22
6 8 7 7 6 3 4 4 3 2 3 6 7 9 13 13 11 10 9 10 11 10 11 11 11 10 9 10 11 11 10 6 6 8 10 12 14 16 16 17 18 19 20 21 21 22 22 22 21 21 20 20 22 21 19 20 20 19 18 18 18 18 18 19 20 19 18 18 18 19 19 19 22 25 27 28 28 27 28 29 31 32 31 30 30 29 27 26 27 27 26 25 24 23 23 24 24
5 5 6 6 4 4 4 4 4 3 3 3 2 5 11 12 12 12 11 12 12 11 11 11 11 11 10 10 10 10 9 7 7 9 11 13 15 16 16 17 19 20 20 20 21 21 21 22 22 21 21 21 22 22 21 19 19 19 17 15 14 14 15 16 19 21 22 22 22 21 21 21 23 25 29 32 31 29 28 28 30 31 30 31 31 29 28 28 29 29 28 27 25 24 24 24 25
5 4 6 5 4 4 2 3 5 2 2 2 3 5 9 10 10 12 13 13 11 9 9 9 8 9 9 8 7 8 9 9 8 9 10 13 14 14 15 17 20 20 18 18 20 21 21 22 23 23 22 22 21 23 24 20 16 17 17 15 14 13 14 14 15 17 20 23 26 27 28 30 28 26 30 33 30 27 26 26 28 29 29 31 32 30 30 31 30 30 29 29 27 24 24 25 27
5 5 6 3 6 4 1 5 6 2 2 2 4 6 8 9 11 12 10 7 8 8 7 8 8 8 7 6 6 6 8 7 7 8 8 10 13 14 16 17 19 20 20 21 22 22 22 22 22 23 22 22 21 23 25 21 16 15 15 15 15 16 17 16 14 14 16 18 20 21 23 26 27 25 26 27 25 23 25 26 26 26 28 32 32 32 32 32 31 30 29 29 29 27 26 26 26
5 6 5 1 4 6 6 7 6 2 4 3 2 5 5 6 10 11 7 4 7 8 8 10 10 9 8 8 9 8 8 7 7 7 7 7 9 11 13 15 17 19 22 25 24 22 21 20 21 21 21 21 20 20 23 22 19 16 16 16 17 17 18 19 18 16 17 17 17 18 17 18 19 20 22 23 24 25 29 30 28 26 27 30 32 32 33 33 32 32 30 29 31 31 29 25 24
5 4 3 2 3 6 8 8 5 2 2 1 1 5 4 3 6 8 6 5 8 8 8 11 9 9 9 8 8 8 7 7 7 7 7 7 8 9 11 13 15 17 19 22 22 21 19 19 20 21 20 19 19 19 21 23 21 18 17 17 17 16 17 18 18 18 17 17 18 19 19 19 19 21 23 25 26 27 30 33 32 28 27 29 31 31 33 33 33 33 30 28 30 31 29 26 25
3 1 1 6 5 6 8 7 5 2 1 2 2 4 4 5 3 4 5 5 8 8 10 10 9 9 9 7 7 6 6 5 5 6 6 8 9 10 11 11 11 13 15 17 19 20 19 18 18 19 19 18 19 20 21 23 23 20 18 18 17 17 16 15 15 15 15 15 16 16 17 19 22 23 25 26 26 27 29 31 31 27 26 28 30 31 32 32 32 32 29 27 28 29 29 29 30
1 2 1 4 4 6 8 6 4 1 1 3 5 4 3 6 4 4 4 6 9 10 11 10 9 8 7 6 6 4 4 3 3 4 5 6 7 8 9 8 8 11 13 16 17 18 19 19 18 18 18 17 18 20 21 22 23 21 18 18 19 18 16 14 12 12 13 13 14 14 13 15 18 19 21 22 22 24 26 27 27 27 27 28 30 32 32 32 32 31 29 28 28 29 30 32 33
3 3 3 5 3 4 5 5 3 2 4 5 6 6 4 5 5 4 4 5 9 10 8 6 7 7 6 5 4 3 2 2 3 4 4 5 6 6 6 6 7 9 12 14 14 15 16 18 18 18 18 17 17 19 20 20 23 22 18 17 19 17 16 14 12 12 12 12 12 14 15 15 16 17 19 21 22 22 24 26 27 29 28 28 30 32 31 30 30 31 31 32 31 30 31 32 34
7 7 6 6 4 4 3 3 3 4 6 4 4 3 3 4 4 5 4 2 3 5 4 5 6 6 6 4 3 2 1 1 2 3 4 4 4 4 5 6 7 7 10 11 12 12 13 15 16 17 16 16 16 18 19 19 20 21 18 17 18 17 15 14 13 12 12 12 13 13 14 14 16 16 17 20 22 21 22 25 26 27 28 28 29 30 30 30 30 31 32 32 32 31 31 31 33
5 5 6 6 4 3 4 3 3 6 6 1 2 0 3 5 4 3 1 1 1 1 2 5 7 7 6 4 2 1 1 0 2 2 2 2 3 4 6 7 7 7 8 10 11 12 13 13 14 15 15 15 15 17 18 18 18 18 17 16 16 16 15 14 13 13 12 13 14 13 13 13 14 14 15 16 19 21 22 24 24 26 27 29 29 30 31 31 31 31 31 31 31 32 32 32 33
3 5 7 5 4 4 5 5 5 6 2 2 1 1 3 7 7 5 6 4 2 3 1 2 6 7 5 4 2 1 1 1 1 1 1 2 2 4 6 7 7 8 8 9 11 11 12 13 14 15 15 14 15 16 17 17 17 16 16 16 15 15 15 14 13 13 13 13 13 13 13 13 14 13 13 14 16 18 21 23 24 25 28 29 31 31 32 31 31 31 31 31 32 32 32 32 34
7 8 8 6 6 5 6 6 5 5 1 2 0 1 3 6 6 9 10 5 2 3 1 1 2 2 1 1 1 2 1 0 0 1 1 1 1 2 4 5 6 7 8 9 10 11 11 12 13 14 14 15 16 17 16 16 16 15 15 14 14 14 14 14 13 12 12 12 12 12 12 13 13 13 13 13 15 16 18 21 23 24 26 29 31 32 32 31 31 31 31 31 32 32 32 32 34
6 3 4 6 6 4 5 5 5 4 2 2 1 2 4 3 1 3 5 2 3 2 2 1 1 1 1 1 2 2 1 1 1 1 1 1 1 2 2 3 5 6 7 9 10 11 11 11 12 13 14 16 18 16 14 14 14 13 13 13 13 13 13 12 12 12 11 11 11 11 12 12 12 13 12 13 15 18 18 17 18 21 22 23 26 28 30 31 31 31 32 31 32 31 31 33 34
4 1 1 5 3 1 2 0 1 2 1 2 4 3 4 3 4 3 3 2 2 3 3 3 3 3 2 1 2 2 2 3 2 1 2 2 2 2 2 3 4 5 7 8 9 11 11 11 12 11 12 15 16 13 12 12 12 11 11 12 12 12 12 11 11 12 12 12 12 11 11 11 12 12 12 13 13 14 16 14 13 15 16 16 19 22 23 25 27 28 30 30 31 30 29 32 33
3 2 3 2 2 2 2 1 2 1 4 3 4 4 4 3 7 4 4 3 3 4 4 5 4 4 3 2 3 4 3 3 2 1 2 3 3 3 3 3 4 5 7 8 8 10 11 11 12 11 11 13 13 12 11 11 11 10 11 11 11 11 12 11 12 13 13 13 13 13 13 12 13 13 13 14 12 13 16 17 15 14 14 13 15 16 18 19 20 21 24 26 27 27 28 30 31
2 3 4 2 1 1 1 2 1 2 5 3 4 6 4 3 4 2 5 4 4 5 5 4 4 3 4 4 4 4 4 3 2 2 2 2 3 4 4 4 5 5 7 8 9 10 11 11 12 12 11 12 12 12 12 12 11 12 11 12 12 12 12 12 13 14 14 14 14 15 14 13 14 15 15 16 16 16 19 20 19 19 18 16 14 14 17 18 18 18 20 21 23 24 26 28 28
0 2 1 1 2 3 2 3 3 4 5 4 4 5 4 4 4 2 3 4 5 6 5 4 4 4 5 5 5 5 5 4 3 3 3 3 4 5 5 5 6 7 8 9 10 11 11 12 12 11 11 11 11 12 12 12 13 13 13 13 12 12 13 13 13 14 15 16 16 15 15 15 15 16 17 18 19 19 19 20 21 21 21 21 18 16 16 17 18 19 20 20 21 21 23 25 25
0 1 1 0 1 2 3 3 3 3 5 5 3 2 3 5 6 7 6 2 3 5 5 4 5 5 5 4 5 5 5 4 4 4 3 3 4 4 5 5 7 8 9 10 11 11 11 12 12 12 12 11 12 12 12 13 13 13 12 12 13 13 14 15 15 15 16 16 16 15 16 16 16 17 18 18 19 19 19 19 20 20 20 20 20 19 18 18 18 18 19 20 20 19 20 23 24
4 4 4 3 1 0 2 3 1 1 4 5 4 3 3 2 3 7 5 3 4 3 2 3 4 4 4 3 3 5 5 4 4 4 4 4 5 5 5 6 7 8 9 9 11 12 11 12 12 13 13 12 13 13 13 13 13 12 12 12 13 13 14 15 15 15 15 15 15 15 16 17 17 17 17 18 18 18 19 19 19 19 19 18 18 17 18 18 18 17 17 18 18 18 19 21 22
3 4 6 6 4 3 3 4 2 0 3 3 3 4 2 2 0 2 1 3 4 3 1 2 3 3 3 3 3 3 5 5 5 4 4 4 5 5 6 6 6 6 7 8 9 10 10 11 12 12 12 12 12 12 12 12 11 11 11 11 12 13 13 14 14 14 15 15 15 15 15 16 15 15 15 15 15 16 17 16 16 17 16 17 16 15 15 16 16 17 17 17 18 19 20 21 22
Wind_Direction
328 320 318 286 261 279 259 245 254 197 248 264 109 156 121 90 103 130 134 139 139 115 81 112 121 109 75 6 28 40 36 32 22 16 73 112 144 136 131 135 137 136 131 131 131 130 129 128 121 114 109 111 114 114 113 108 102 99 97 95 92 84 71 84 92 84 86 91 91 90 89 86 82 81 78 77 76 76 75 76 76 77 77 76 75 75 75 74 74 73 72 74 75 76 78 79 80
329 318 296 270 250 262 263 229 264 192 219 195 130 125 111 129 159 149 142 138 116 112 131 133 130 105 18 357 357 51 59 45 48 70 90 131 140 132 136 139 139 137 133 134 132 131 129 129 125 116 111 112 115 116 115 111 105 102 101 96 95 95 84 87 89 82 89 95 94 92 89 85 83 82 82 79 76 76 78 77 75 75 76 76 78 78 77 76 75 74 74 74 75 76 77 78 80
327 320 268 246 227 243 270 225 258 224 216 176 125 112 125 156 167 140 121 100 101 117 140 132 135 124 317 181 102 13 80 60 77 90 112 141 141 141 145 140 141 139 135 137 135 132 131 133 129 117 114 113 117 121 120 115 105 103 104 100 97 99 95 91 86 84 92 97 95 94 90 85 84 82 82 80 77 79 81 78 75 75 76 77 76 76 77 76 75 74 74 74 75 75 77 77 79
324 304 253 254 224 222 243 220 256 257 224 148 122 130 152 169 142 110 96 95 111 128 142 148 146 104 310 38 34 21 96 80 89 100 133 152 143 144 146 142 143 139 137 141 137 133 135 139 132 120 112 113 118 122 123 117 109 109 106 103 100 92 91 96 94 89 92 97 97 96 91 88 88 85 85 82 79 86 86 79 77 78 78 80 78 77 77 76 76 75 75 74 75 75 76 79 81
315 278 255 272 250 219 253 239 265 254 261 41 119 139 164 163 128 106 102 108 125 141 147 174 154 101 276 7 358 351 94 101 103 113 137 142 135 142 145 143 143 142 142 142 139 135 139 140 132 125 116 117 119 121 122 118 116 111 105 107 108 96 88 97 101 94 92 97 99 96 92 91 89 86 86 80 74 85 89 81 79 80 79 81 80 81 81 78 78 77 77 77 79 79 79 82 84
285 251 237 261 276 327 254 236 234 226 12 6 75 136 160 148 128 120 117 114 123 137 152 191 154 116 166 80 35 31 62 110 116 125 135 133 137 144 144 145 146 144 144 144 141 137 141 141 136 132 123 121 120 122 122 123 121 110 103 103 106 108 100 101 105 101 97 100 99 98 96 92 88 85 85 80 73 78 88 87 84 82 83 85 84 83 82 80 80 79 79 80 83 84 84 86 88
260 223 203 220 203 250 241 232 230 207 44 10 34 130 153 138 130 131 132 134 138 156 205 200 173 187 135 116 101 71 62 79 117 131 130 135 142 145 146 148 147 145 146 145 142 140 144 141 139 136 130 127 123 124 124 126 122 111 108 105 101 109 107 106 112 108 101 101 101 101 98 92 90 89 87 85 79 75 79 83 82 81 82 84 83 82 82 81 81 81 80 81 85 87 88 90 90
251 252 188 227 201 206 245 241 236 179 63 53 53 71 130 139 143 148 154 161 164 171 191 183 208 228 109 130 131 102 93 75 113 124 127 139 146 148 150 150 147 148 147 146 144 144 148 143 141 139 135 132 127 126 126 127 122 115 117 112 104 105 104 103 116 114 105 102 104 105 101 95 95 94 91 90 88 82 78 80 83 85 83 82 83 83 82 82 82 82 82 82 86 88 89 90 91
237 253 163 238 218 203 242 236 214 92 102 114 108 53 93 149 158 159 163 159 155 168 174 170 206 224 118 138 99 119 125 100 121 126 133 143 148 151 151 153 150 150 149 149 148 147 154 149 143 140 140 137 132 131 130 131 125 122 125 122 112 108 108 102 111 114 109 102 103 110 106 99 99 98 94 92 93 89 83 83 85 87 88 87 87 85 84 83 83 82 82 84 85 87 88 90 92
222 236 214 231 225 211 230 224 197 115 123 119 113 137 147 160 169 167 167 154 151 156 146 151 195 223 141 137 106 121 129 125 138 135 142 147 150 153 153 156 151 151 153 153 149 148 160 158 149 144 145 144 139 137 136 136 130 126 128 132 124 115 115 107 110 110 106 101 104 115 111 105 102 100 98 97 97 93 90 86 86 88 91 91 89 89 87 86 84 84 83 84 85 86 88 91 93
212 197 262 235 220 213 220 208 182 127 125 138 127 145 163 168 178 177 166 146 154 149 133 155 186 197 210 124 100 107 122 137 147 145 150 152 152 155 156 157 155 156 157 157 154 151 160 164 158 150 149 151 146 141 140 139 133 130 130 138 134 125 123 119 121 115 109 107 110 114 114 112 106 103 102 102 103 101 96 90 92 96 96 94 92 91 89 87 86 86 86 87 89 92 95 94 95
218 175 192 225 222 220 222 210 169 130 133 165 158 150 169 174 179 178 167 152 161 157 158 182 171 179 196 132 107 123 134 147 150 151 153 154 155 156 159 158 159 162 163 163 158 155 160 165 165 159 157 155 151 147 145 144 138 134 132 138 137 132 133 131 130 128 125 119 113 112 114 117 117 116 115 117 116 111 102 95 106 109 101 97 95 94 93 91 89 88 90 91 93 98 100 99 99
230 181 197 220 239 250 252 241 142 137 165 172 154 150 163 175 183 182 173 164 170 172 167 173 119 206 196 107 117 133 144 153 150 152 154 157 158 157 160 161 163 165 169 168 163 162 162 164 167 168 164 159 158 157 154 151 146 141 139 142 137 132 140 143 138 136 137 132 121 117 116 120 130 133 132 132 119 117 112 99 108 114 104 98 93 94 96 96 94 92 92 93 95 102 106 106 105
259 196 221 216 224 258 244 241 154 181 179 139 126 145 164 176 187 193 183 175 171 158 122 127 122 210 188 126 147 149 152 153 150 153 156 159 158 160 162 162 165 168 172 173 171 169 167 167 168 172 170 167 168 169 168 163 157 153 149 148 143 135 139 144 143 140 137 135 127 119 115 111 131 142 146 141 113 117 119 109 103 104 102 98 96 97 101 103 100 99 96 97 100 107 114 114 114
295 284 253 231 192 215 217 254 188 212 162 124 137 152 163 159 161 205 193 181 138 95 98 100 70 223 178 148 154 146 150 150 152 155 157 159 159 162 162 163 167 171 177 178 178 176 174 173 172 176 172 172 174 174 179 176 170 165 163 159 153 145 141 142 145 147 142 139 128 116 112 105 127 148 154 146 123 120 126 124 112 101 100 101 103 101 105 106 104 104 101 105 111 118 124 125 123
287 268 239 232 213 208 198 201 192 219 147 125 148 155 163 150 167 205 72 2 99 110 154 146 148 331 18 40 62 124 143 147 153 155 155 159 161 163 164 168 170 173 182 184 185 184 183 179 178 179 173 176 173 169 179 185 180 173 176 173 166 159 150 147 144 148 147 143 136 122 109 104 124 145 150 152 145 136 138 141 134 122 115 112 114 109 107 108 107 109 113 121 124 126 127 129 129
268 249 221 214 212 210 182 183 179 175 123 126 151 163 171 155 173 207 51 301 149 141 182 124 122 37 47 78 80 118 138 145 153 155 156 161 164 166 170 173 174 177 185 190 191 188 188 187 186 183 179 181 174 167 174 186 186 180 184 184 179 173 161 153 148 150 149 146 143 119 108 117 125 129 138 151 157 158 153 159 157 146 136 132 131 123 116 116 118 119 123 124 117 118 121 127 131
220 216 211 209 209 198 174 184 166 109 137 145 162 174 180 162 168 171 154 215 188 155 180 141 129 110 87 109 115 128 143 150 157 162 162 165 170 172 175 178 180 182 185 191 194 193 192 192 193 190 184 184 179 172 171 185 190 183 185 187 184 185 179 167 159 161 159 156 140 117 122 137 135 135 143 142 148 164 168 172 169 165 162 159 152 141 138 137 133 122 114 108 106 110 113 122 134
223 220 215 217 199 125 93 158 96 23 152 150 163 181 190 169 162 167 187 194 185 192 190 181 181 153 122 127 135 141 153 159 164 171 170 172 176 176 177 180 184 186 187 190 193 195 194 193 196 194 190 189 185 179 177 185 186 179 181 186 189 193 185 171 174 179 174 180 151 136 150 152 145 155 162 157 162 167 169 177 180 184 181 179 176 161 158 152 136 118 106 102 101 97 98 118 140
233 232 223 215 136 94 64 86 94 27 110 151 162 178 188 163 151 168 203 196 192 212 200 189 197 179 155 145 147 151 164 169 172 179 179 180 180 180 181 180 184 188 189 189 191 195 196 195 195 195 195 192 189 185 183 181 177 178 183 188 191 194 187 179 195 197 186 199 176 159 177 163 158 182 184 175 174 160 165 183 195 200 200 204 188 179 191 162 132 120 111 101 95 90 108 146 155
203 203 240 41 90 116 97 76 89 44 360 160 155 164 178 156 152 176 200 203 202 218 211 198 204 188 166 150 155 163 172 175 180 187 187 186 185 185 187 184 185 186 187 188 191 195 197 197 195 196 197 195 193 189 188 185 180 183 187 191 194 195 195 193 202 202 197 205 188 179 197 179 165 186 186 173 165 156 162 175 181 177 189 201 161 147 200 161 136 127 116 100 94 118 156 170 175
202 189 2 31 29 90 98 77 74 43 347 151 150 168 170 145 174 195 202 213 197 212 208 183 200 187 164 152 156 166 176 179 185 193 193 192 190 190 190 187 185 184 185 187 191 195 196 198 197 196 196 197 196 194 194 191 187 190 191 193 195 197 199 200 203 205 207 206 194 195 204 188 168 173 175 167 170 170 168 169 173 173 175 183 169 170 188 163 161 165 146 129 159 180 177 181 188
231 191 105 53 30 50 86 82 59 1 173 159 158 159 150 160 194 201 212 222 89 53 40 67 53 122 149 149 154 167 178 183 188 195 195 195 195 194 193 189 186 185 186 188 192 195 195 198 197 196 196 196 198 197 196 194 194 196 196 196 196 199 201 201 205 206 209 208 203 203 202 191 179 179 179 177 180 179 178 178 179 183 184 187 184 188 199 183 179 187 191 195 193 190 188 187 193
251 198 137 99 52 61 67 64 89 262 186 152 146 141 165 192 193 180 218 223 104 78 55 66 74 114 141 149 161 173 182 188 192 196 197 199 199 198 197 195 192 189 189 190 192 194 195 196 197 197 197 197 198 197 197 197 200 201 201 199 198 202 203 202 207 208 209 210 208 207 204 202 198 194 189 187 187 183 187 186 184 190 189 195 194 197 208 194 183 194 199 204 205 203 198 193 199
241 205 125 116 80 86 83 87 169 218 203 108 151 167 175 192 162 168 222 221 134 109 92 89 116 148 159 164 170 177 184 191 194 195 198 201 201 200 201 200 198 197 196 195 194 196 197 196 197 198 199 198 199 199 200 201 202 203 204 202 202 210 210 205 207 208 210 211 212 212 207 206 209 208 203 197 191 188 196 195 191 196 194 203 206 204 209 194 189 200 202 208 208 207 207 203 207
219 172 119 124 102 97 113 147 171 192 183 173 181 178 138 56 338 244 220 202 123 125 129 118 134 164 178 176 177 183 187 192 193 194 196 199 200 200 202 203 204 204 203 199 198 200 199 199 199 200 200 201 201 201 203 205 204 205 206 206 209 217 218 213 212 210 210 212 214 216 211 210 212 214 214 208 198 196 212 216 206 206 207 216 220 211 205 196 198 205 204 210 210 211 213 208 209
149 131 112 118 106 103 141 153 160 174 149 200 197 168 125 90 250 237 182 127 110 157 174 160 164 176 183 184 185 189 193 194 192 192 194 196 199 201 203 203 206 208 205 203 202 201 200 201 202 202 202 202 203 204 205 207 207 208 210 209 213 221 221 217 218 214 212 214 215 219 215 213 214 216 217 215 210 208 224 230 217 217 220 226 228 218 212 204 200 206 207 208 212 216 216 216 216
137 132 113 115 119 119 141 146 158 186 149 207 212 149 135 128 217 228 124 106 151 194 191 179 193 194 187 191 190 193 199 197 192 193 194 195 197 199 202 203 205 207 206 204 202 201 200 202 204 204 204 205 205 207 208 209 210 210 212 212 215 221 218 215 218 215 215 215 214 218 217 215 215 217 220 218 215 213 225 231 223 223 225 232 234 225 227 220 207 212 217 215 215 216 219 224 222
157 158 147 140 154 150 155 146 163 224 168 185 209 175 193 194 217 197 120 120 147 194 208 191 200 202 195 193 190 196 199 194 192 197 198 198 198 198 201 202 202 205 206 205 201 200 200 200 203 205 206 207 208 209 210 212 213 213 213 215 218 220 216 217 219 216 218 217 215 217 216 216 216 217 218 217 217 213 222 232 231 231 229 235 239 234 237 234 223 227 233 232 228 226 224 227 226
172 194 197 159 186 186 163 148 170 207 140 186 226 229 218 203 206 160 119 144 140 186 213 201 203 198 198 194 193 200 196 195 197 200 202 200 200 200 201 201 200 202 203 203 201 201 200 198 200 204 208 208 209 211 212 214 216 216 216 217 220 223 221 218 218 219 221 220 219 218 215 214 216 219 219 222 227 223 226 237 240 239 235 235 241 242 242 239 235 235 240 239 234 233 227 226 229
180 193 218 191 207 178 147 151 177 180 134 199 225 251 244 181 174 139 121 163 165 203 213 207 208 195 197 195 198 206 198 202 205 205 204 201 202 201 201 199 198 201 200 200 201 201 200 199 198 202 208 209 210 211 212 214 216 217 218 218 220 226 225 221 219 221 224 225 223 222 226 229 226 227 229 233 237 231 228 238 244 243 241 240 241 244 241 237 236 233 236 236 230 232 228 224 229
190 187 208 206 214 157 137 156 181 184 155 192 212 241 246 144 136 127 134 174 187 214 218 211 210 201 202 198 201 210 206 208 211 212 208 204 204 201 200 199 197 200 199 199 199 199 201 200 199 201 206 208 210 212 213 215 216 218 220 220 220 223 227 225 221 219 221 225 225 228 240 245 242 239 240 240 242 240 234 239 245 245 246 247 244 244 242 236 233 231 233 231 221 225 226 222 226
197 208 208 196 205 172 146 160 184 189 152 193 220 254 252 136 126 133 148 181 194 214 225 219 217 210 208 204 205 210 209 207 209 214 212 207 205 203 201 200 199 200 200 200 197 197 200 200 200 201 204 206 209 212 214 215 218 220 223 223 222 221 225 228 228 228 226 224 226 233 241 247 248 244 244 244 243 244 243 243 246 247 249 249 247 247 245 237 233 233 233 232 225 221 224 222 223
190 213 217 191 203 196 166 153 168 187 182 206 214 239 259 173 134 157 167 177 186 207 226 225 226 222 214 213 211 211 213 211 210 213 211 208 206 204 201 199 199 200 201 202 199 198 199 200 202 202 204 205 207 211 214 216 219 222 225 227 226 225 226 230 233 233 231 229 231 235 235 239 244 241 241 243 243 243 244 242 240 245 250 248 246 248 248 243 236 234 233 234 232 224 222 225 226
187 194 208 185 207 223 204 157 154 184 204 219 204 219 247 236 171 162 169 176 185 201 217 227 234 232 225 219 217 219 219 218 216 214 210 206 204 202 201 199 198 199 201 202 201 200 199 200 202 203 203 203 206 209 212 215 218 221 224 226 228 229 229 231 232 232 234 233 232 235 234 234 240 242 243 245 246 244 242 239 235 241 248 249 248 249 249 247 240 235 231 231 236 232 226 229 229
188 184 204 202 202 218 193 99 102 192 206 216 216 223 240 241 226 197 175 175 194 213 216 226 231 235 236 227 225 224 223 225 222 218 210 200 199 200 200 200 199 201 202 201 202 201 200 200 200 202 203 202 203 206 208 210 213 217 220 223 226 227 228 230 231 233 238 238 236 237 237 239 244 246 247 247 248 247 242 239 239 244 249 251 252 250 249 248 243 239 235 231 236 236 232 230 227
191 186 208 215 207 201 136 92 88 228 226 217 225 239 245 246 243 229 196 181 202 219 221 227 227 229 231 228 229 226 227 227 208 202 194 186 194 198 198 199 199 201 203 202 202 202 203 202 200 202 201 200 202 203 204 206 209 212 215 219 222 225 227 228 230 232 236 239 239 237 237 242 243 239 242 246 249 250 246 242 243 249 252 253 253 253 249 246 241 241 240 236 236 238 237 236 234
203 199 206 215 214 181 98 95 122 147 244 221 219 248 254 253 252 247 233 221 225 225 223 228 230 229 227 225 228 230 230 214 176 180 185 189 199 200 198 199 198 200 205 205 204 205 206 204 203 204 201 200 202 202 203 205 208 208 210 216 219 222 225 225 227 227 227 229 230 231 232 237 238 238 244 248 249 253 251 246 246 250 253 252 252 250 246 242 240 242 243 241 239 239 241 243 241
214 213 212 219 197 134 101 101 122 145 231 217 175 258 261 257 256 251 243 239 239 234 231 232 233 233 228 221 223 228 227 211 191 193 192 193 198 198 198 203 205 206 208 208 207 206 206 205 206 205 203 202 202 202 203 204 207 208 209 214 216 221 226 226 229 231 232 233 235 239 240 240 243 248 251 248 248 252 253 249 247 248 251 252 250 246 243 241 242 245 246 245 243 242 244 246 245
222 214 215 212 160 165 201 156 142 158 238 309 335 284 269 260 256 250 242 240 238 232 228 229 231 232 229 225 227 227 222 217 209 201 193 188 187 189 195 205 212 211 207 205 205 205 204 205 206 204 204 203 202 205 206 203 202 206 210 216 219 226 228 225 229 235 238 239 241 245 244 242 243 249 250 246 243 247 251 252 250 247 249 251 249 244 243 245 246 249 250 248 245 242 244 247 248
220 225 228 205 159 172 41 124 144 154 218 272 302 283 271 249 241 243 234 226 230 223 217 224 223 221 228 243 252 237 225 224 215 205 199 188 182 186 197 206 211 210 209 209 208 207 206 205 205 203 203 203 202 206 206 201 197 200 206 213 221 229 230 225 224 228 232 233 236 239 240 241 242 243 244 237 234 246 255 256 256 253 250 250 248 246 248 251 252 253 255 253 249 246 244 246 249
212 217 230 242 173 155 101 129 154 191 212 205 244 257 267 232 225 234 214 188 224 217 216 229 223 209 210 225 236 232 227 228 226 224 218 202 194 193 195 199 204 209 214 216 214 210 207 205 203 201 200 202 202 202 202 199 197 198 201 206 212 221 226 226 225 225 228 229 231 233 234 238 239 236 233 228 235 252 258 257 256 258 256 252 251 251 252 254 254 255 258 256 253 250 245 244 247
215 205 201 137 159 151 136 161 181 228 221 135 218 244 260 224 213 216 198 212 232 217 218 232 227 211 203 212 223 220 217 216 219 227 226 220 216 208 202 199 202 209 217 220 217 211 205 201 200 199 197 199 200 197 196 198 199 199 202 207 211 217 221 224 226 228 232 234 236 237 236 236 238 240 243 244 250 257 257 253 251 254 261 260 256 254 254 254 254 255 256 255 255 253 244 239 244
214 32 193 156 161 167 160 181 205 236 81 112 212 240 265 263 228 160 165 227 243 229 229 229 220 213 204 204 212 208 208 209 208 215 218 222 221 219 220 214 207 210 215 217 216 211 205 199 197 198 196 197 198 195 194 198 200 200 203 209 214 220 222 223 224 225 229 232 236 242 243 242 243 246 251 251 253 255 254 251 247 250 259 261 256 254 253 253 252 252 254 256 256 252 244 241 243
189 29 220 149 159 177 172 190 209 234 266 209 192 185 241 257 231 150 163 236 246 238 235 225 208 200 192 187 191 192 203 216 228 229 224 227 224 222 222 214 205 208 211 212 213 215 212 207 203 200 197 196 195 195 194 197 203 202 201 208 214 219 223 224 223 223 225 228 232 237 239 240 240 243 248 248 246 248 250 249 248 253 259 258 254 253 253 254 253 254 254 255 254 253 251 247 244
152 149 108 97 117 151 168 200 193 177 244 231 179 178 235 263 231 191 183 230 240 237 234 210 179 164 157 160 164 170 196 222 247 250 244 240 228 215 207 201 199 208 215 213 210 210 208 205 201 195 193 192 191 192 191 196 206 206 201 205 211 215 219 221 222 222 222 223 227 230 231 233 234 236 242 244 242 244 248 250 250 254 258 257 255 253 254 255 256 255 253 252 252 252 252 248 245
142 149 118 106 125 140 168 206 195 204 232 226 148 174 251 275 239 205 194 220 240 235 214 154 145 143 140 139 132 134 162 234 249 252 248 233 212 193 192 192 186 198 209 202 193 191 190 190 190 188 188 187 185 189 191 193 200 203 201 204 209 211 214 215 218 220 220 221 224 226 227 230 232 232 236 241 241 238 243 249 249 251 254 255 254 253 255 257 256 254 253 252 251 250 250 247 245
151 157 142 130 132 150 181 184 197 226 230 179 86 328 244 241 234 193 182 24 60 245 222 160 159 151 137 132 119 97 59 297 247 247 235 202 183 177 183 179 166 171 183 179 177 179 180 180 179 180 183 183 181 184 189 190 192 197 200 204 207 210 213 215 218 220 221 222 225 226 226 228 230 232 233 235 236 235 239 248 249 248 249 252 253 254 256 257 256 254 254 254 250 248 249 246 244
202 176 163 166 166 172 199 190 196 225 216 94 83 302 243 245 247 247 271 280 183 180 222 163 157 145 129 121 101 60 11 318 241 237 233 198 180 173 173 166 155 156 159 162 166 167 171 173 173 176 177 177 178 180 186 189 190 195 199 202 206 210 213 216 220 223 224 225 227 227 227 228 229 231 232 232 234 239 246 252 252 249 249 251 253 255 257 258 257 255 255 254 249 248 250 248 246
200 187 181 194 183 179 202 194 202 221 170 78 239 251 255 261 255 246 255 258 135 138 148 102 136 146 102 59 3 319 310 307 196 219 241 202 175 164 161 153 146 148 149 152 159 161 163 166 168 172 172 177 185 185 184 186 189 193 197 200 203 207 212 216 220 223 225 227 229 230 232 233 233 233 237 242 247 251 254 255 255 253 252 253 253 254 256 257 258 257 257 257 254 254 255 253 252
196 206 207 211 204 203 205 198 208 198 115 105 187 226 235 233 127 218 229 157 105 170 181 127 251 250 304 319 283 264 214 150 134 197 206 162 154 150 140 136 131 136 147 153 159 162 161 161 164 166 172 185 192 187 182 182 187 192 194 197 199 203 208 213 218 222 225 228 231 235 239 240 242 244 247 255 263 265 262 258 256 255 252 252 254 255 256 256 256 257 258 257 257 258 255 254 255
187 347 268 230 236 202 168 161 183 139 80 168 183 244 250 268 301 254 190 150 170 198 191 204 222 198 173 235 224 185 155 144 152 194 169 140 149 154 130 132 131 136 151 157 164 168 164 163 164 165 179 192 191 184 181 181 185 189 192 196 198 201 205 208 214 218 220 226 228 231 237 241 244 249 252 256 259 262 261 257 254 256 255 251 253 255 257 257 256 257 258 257 257 256 253 254 256
173 177 200 220 5 65 133 157 90 76 273 200 167 238 248 269 281 244 159 167 178 168 180 196 193 162 163 194 180 160 146 147 167 186 146 133 143 150 135 133 134 144 157 161 169 172 169 170 169 169 184 194 191 186 183 181 183 189 194 198 199 202 207 209 213 216 219 225 228 230 231 234 237 242 247 250 251 257 263 263 256 253 255 254 253 253 255 257 257 258 258 256 256 254 252 254 255
152 183 181 139 30 9 208 232 168 187 246 216 168 228 236 214 245 169 149 187 188 170 170 173 167 159 175 179 161 151 143 149 168 159 141 133 135 138 137 136 136 144 154 161 172 173 172 176 175 177 186 191 191 190 189 188 189 192 197 202 204 208 213 218 220 222 224 227 232 236 237 238 241 248 254 257 261 265 269 269 264 258 255 252 250 251 253 255 255 256 257 256 257 257 256 258 257
359 252 243 116 205 217 189 217 224 201 228 240 193 216 243 222 217 204 191 194 185 175 162 167 184 181 179 169 155 148 143 150 160 152 147 139 135 131 129 133 140 150 156 162 172 172 173 177 178 182 189 192 193 195 195 196 196 199 205 209 212 215 219 225 228 227 228 231 234 241 247 250 254 258 263 266 269 271 271 270 269 266 261 255 250 248 250 254 254 253 253 254 257 257 257 258 259
143 278 288 329 251 237 193 205 238 223 223 238 210 193 231 217 211 227 227 177 153 173 169 182 190 180 175 159 147 148 145 152 152 145 143 134 131 122 120 133 144 155 163 167 170 169 172 179 181 183 187 191 196 197 198 202 206 210 213 216 221 224 225 229 233 233 235 240 243 247 253 259 262 263 265 267 269 271 271 270 268 267 265 262 256 251 249 251 254 253 252 252 254 256 256 256 258
184 192 184 186 187 350 239 222 234 252 236 237 237 239 232 178 197 225 224 101 97 122 178 193 169 152 144 118 135 147 136 141 138 132 138 131 124 114 115 140 150 154 162 167 170 171 176 183 186 189 191 194 199 201 203 207 212 216 219 223 227 230 232 235 239 242 244 248 251 253 256 258 260 261 263 266 269 270 270 270 269 267 266 264 260 256 252 249 249 252 252 253 253 253 255 257 258
192 202 194 195 180 148 205 214 163 358 262 251 255 260 241 97 65 240 171 84 85 72 33 180 128 110 123 122 152 147 129 136 134 129 133 122 116 112 112 127 132 136 150 163 170 174 181 188 191 195 198 201 205 208 210 213 216 220 224 229 233 236 238 240 243 247 250 252 252 254 256 258 261 264 266 269 271 271 271 269 267 266 265 262 258 255 253 249 247 250 252 253 252 252 254 256 258